EW9495 Weather Reports


time (UTC)temp
F
wind
direction
speed
knots
gust
knots
rain 1hr
in
rain 24hr
in
rain mn
in
humidity
%
barometer
mb
20260504044541 0 67 15.6 26.1 0.00 0.00 0.00 998.1
20260504043039 0 63 17.4 24.3 0.00 0.00 0.00 998.1
20260504041532 0 53 16.5 26.1 0.00 0.00 0.00 997.7
20260504040029 0 63 13.0 26.1 0.00 0.00 0.00 997.1
20260504034523 0 92 11.3 21.7 0.00 0.00 0.00 996.9
20260504033019 0 70 10.4 20.0 0.00 0.00 0.00 996.4
20260504031515 0 72 10.4 21.7 0.00 0.00 0.00 996.5
20260504030010 0 61 13.0 20.9 0.00 0.00 0.00 996.3
20260504024508 0 68 9.6 20.0 0.00 0.00 0.00 996.2
20260504023106 0 64 10.4 20.0 0.00 0.00 0.00 996.2
20260504021606 0 65 8.7 15.6 0.00 0.00 0.00 996.2
20260504020053 0 65 6.1 12.2 0.00 0.00 0.00 996.4
20260504014548 0 48 2.6 7.8 0.00 0.00 0.00 996.5
20260504013043 0 336 4.3 9.6 0.00 0.00 0.00 996.6
20260504011539 0 346 7.0 13.0 0.00 0.00 0.00 996.6
20260504010035 0 325 4.3 10.4 0.00 0.00 0.00 996.6
20260504004530 0 340 7.0 12.2 0.00 0.00 0.00 996.6
20260504003039 0 313 7.0 12.2 0.00 0.00 0.00 996.7
20260504001524 0 34 6.1 16.5 0.00 0.00 0.00 996.8
20260504000019 0 321 7.8 13.9 0.00 0.00 0.00 996.9
20260503234514 0 300 5.2 17.4 0.00 0.00 0.00 997.0
20260503233010 0 342 7.0 15.6 0.00 0.00 0.00 997.2
20260503231506 0 346 7.8 18.2 0.00 0.00 0.00 997.2
20260503230002 0 332 9.6 16.5 0.00 0.00 0.00 997.3
20260503224557 0 320 8.7 16.5 0.00 0.00 0.00 997.4
20260503223053 0 329 7.0 15.6 0.00 0.00 0.00 997.4
20260503221549 0 331 8.7 17.4 0.00 0.00 0.00 997.7
20260503220045 0 318 7.8 16.5 0.00 0.00 0.00 997.7
20260503214539 0 296 7.8 16.5 0.00 0.00 0.00 997.9
20260503213035 0 22 8.7 15.6 0.00 0.00 0.00 998.0
20260503211531 0 327 7.8 17.4 0.00 0.00 0.00 998.3
20260503210027 0 250 7.8 13.9 0.00 0.00 0.00 998.6
20260503204522 0 322 8.7 19.1 0.00 0.00 0.00 998.9
20260503203019 0 34 6.1 15.6 0.00 0.00 0.00 998.8
20260503201513 0 336 9.6 23.5 0.00 0.00 0.00 998.9
20260503200009 0 318 7.8 16.5 0.00 0.00 0.00 999.2
20260503194504 0 304 9.6 17.4 0.00 0.00 0.00 999.7
20260503193104 0 316 6.1 17.4 0.00 0.00 0.00 999.7
20260503191555 0 309 8.7 17.4 0.00 0.00 0.00 1000.0
20260503190051 0 288 7.0 13.0 0.00 0.00 0.00 1000.0
20260503184603 0 304 7.8 13.0 0.00 0.00 0.00 1000.3
20260503183047 0 309 7.0 13.0 0.00 0.00 0.00 1000.3
20260503181537 0 341 5.2 12.2 0.00 0.00 0.00 1000.4
20260503180036 0 294 6.1 12.2 0.00 0.00 0.00 1000.5
20260503174532 0 323 6.1 12.2 0.00 0.00 0.00 1000.6
20260503173032 0 40 6.1 12.2 0.00 0.00 0.00 1001.1
20260503171519 0 29 7.0 15.6 0.00 0.00 0.00 1001.1
20260503090117 0 321 3.5 6.1 0.00 0.00 0.00 1003.2
20260503081544 0 325 3.5 6.1 0.00 0.00 0.00 1003.8
20260503071535 0 347 3.5 5.2 0.00 0.00 0.00 1004.0